Time,TemperatureF,DewpointF,PressureIn,WindDirection,WindDirectionDegrees,WindSpeedMPH,WindSpeedGustMPH,Humidity,HourlyPrecipIn,Conditions,Clouds,dailyrainin,SoftwareType,DateUTC
2013-07-07 00:01:00,55.0,52.0,29.84,SSW,213,6.0,7.0,89,-99.99,,,-99.99,,2013-07-07 07:01:00,
2013-07-07 00:11:00,55.0,52.0,29.84,SSW,195,0.0,6.0,89,-99.99,,,-99.99,,2013-07-07 07:11:00,
2013-07-07 00:22:00,55.0,52.0,29.84,WSW,248,4.0,5.0,89,-99.99,,,-99.99,,2013-07-07 07:22:00,
2013-07-07 00:33:00,55.0,52.0,29.84,WSW,248,4.0,5.0,89,-99.99,,,-99.99,,2013-07-07 07:33:00,
2013-07-07 00:44:00,55.0,52.0,29.84,WSW,248,4.0,5.0,89,-99.99,,,-99.99,,2013-07-07 07:44:00,
2013-07-07 00:52:00,55.0,52.0,29.84,SSW,212,2.0,5.0,90,-99.99,,,-99.99,,2013-07-07 07:52:00,
2013-07-07 01:02:00,55.0,52.0,29.84,South,191,0.0,4.0,90,-99.99,,,-99.99,,2013-07-07 08:02:00,
2013-07-07 01:12:00,55.0,52.0,29.84,South,191,0.0,4.0,90,-99.99,,,-99.99,,2013-07-07 08:12:00,
2013-07-07 01:22:00,55.0,52.0,29.84,South,191,0.0,4.0,90,-99.99,,,-99.99,,2013-07-07 08:22:00,
2013-07-07 01:33:00,55.0,52.0,29.84,South,191,0.0,4.0,90,-99.99,,,-99.99,,2013-07-07 08:33:00,
2013-07-07 01:43:00,55.0,52.0,29.83,SSW,198,2.0,6.0,90,-99.99,,,-99.99,,2013-07-07 08:43:00,
2013-07-07 01:53:00,55.0,52.0,29.83,SSW,195,1.0,3.0,90,-99.99,,,-99.99,,2013-07-07 08:53:00,
2013-07-07 02:02:00,55.0,52.0,29.83,SSW,195,1.0,3.0,90,-99.99,,,-99.99,,2013-07-07 09:02:00,
2013-07-07 02:12:00,55.0,52.0,29.83,SSW,195,1.0,3.0,90,-99.99,,,-99.99,,2013-07-07 09:12:00,
2013-07-07 02:22:00,55.0,52.0,29.83,SW,217,0.0,7.0,91,-99.99,,,-99.99,,2013-07-07 09:22:00,
2013-07-07 02:34:00,55.0,52.0,29.83,SW,217,0.0,7.0,91,-99.99,,,-99.99,,2013-07-07 09:34:00,
2013-07-07 02:43:00,55.0,52.0,29.83,SW,217,0.0,7.0,91,-99.99,,,-99.99,,2013-07-07 09:43:00,
2013-07-07 02:53:00,55.0,52.0,29.83,SW,217,0.0,7.0,91,-99.99,,,-99.99,,2013-07-07 09:53:00,
2013-07-07 03:03:00,54.0,52.0,29.83,SW,217,2.0,6.0,92,-99.99,,,-99.99,,2013-07-07 10:03:00,
2013-07-07 03:12:00,54.0,52.0,29.83,SW,216,0.0,5.0,92,-99.99,,,-99.99,,2013-07-07 10:12:00,
2013-07-07 03:22:00,54.0,52.0,29.83,SW,236,2.0,7.0,92,-99.99,,,-99.99,,2013-07-07 10:22:00,
2013-07-07 03:32:00,54.0,52.0,29.83,SW,236,2.0,7.0,92,-99.99,,,-99.99,,2013-07-07 10:32:00,
2013-07-07 03:43:00,54.0,52.0,29.83,SW,236,2.0,7.0,92,-99.99,,,-99.99,,2013-07-07 10:43:00,
2013-07-07 03:52:00,54.0,52.0,29.83,SW,236,2.0,7.0,92,-99.99,,,-99.99,,2013-07-07 10:52:00,
2013-07-07 04:02:00,54.0,52.0,29.83,SW,220,2.0,6.0,93,-99.99,,,-99.99,,2013-07-07 11:02:00,
2013-07-07 04:11:00,54.0,52.0,29.83,SW,220,2.0,6.0,93,-99.99,,,-99.99,,2013-07-07 11:11:00,
2013-07-07 04:23:00,54.0,52.0,29.83,WSW,257,0.0,5.0,93,-99.99,,,-99.99,,2013-07-07 11:23:00,
2013-07-07 04:34:00,54.0,52.0,29.83,SW,226,2.0,6.0,93,-99.99,,,-99.99,,2013-07-07 11:34:00,
2013-07-07 04:43:00,54.0,52.0,29.83,SW,226,2.0,6.0,93,-99.99,,,-99.99,,2013-07-07 11:43:00,
2013-07-07 04:53:00,54.0,52.0,29.83,SW,226,2.0,6.0,93,-99.99,,,-99.99,,2013-07-07 11:53:00,
2013-07-07 05:02:00,54.0,52.0,29.83,SW,229,3.0,6.0,94,-99.99,,,-99.99,,2013-07-07 12:02:00,
2013-07-07 05:11:00,54.0,52.0,29.83,WSW,248,1.0,5.0,94,-99.99,,,-99.99,,2013-07-07 12:11:00,
2013-07-07 05:22:00,54.0,52.0,29.83,WSW,248,1.0,5.0,94,-99.99,,,-99.99,,2013-07-07 12:22:00,
2013-07-07 05:34:00,54.0,52.0,29.83,WSW,248,1.0,5.0,94,-99.99,,,-99.99,,2013-07-07 12:34:00,
2013-07-07 05:43:00,54.0,52.0,29.83,WSW,239,0.0,4.0,94,-99.99,,,-99.99,,2013-07-07 12:43:00,
2013-07-07 05:52:00,54.0,53.0,29.83,WSW,239,1.0,3.0,95,-99.99,,,-99.99,,2013-07-07 12:52:00,
2013-07-07 06:02:00,54.0,53.0,29.83,WSW,247,0.0,4.0,95,-99.99,,,-99.99,,2013-07-07 13:02:00,
2013-07-07 06:11:00,54.0,53.0,29.83,WSW,247,0.0,4.0,95,-99.99,,,-99.99,,2013-07-07 13:11:00,
2013-07-07 06:22:00,54.0,53.0,29.83,WSW,247,0.0,2.0,95,-99.99,,,-99.99,,2013-07-07 13:22:00,
2013-07-07 06:34:00,54.0,53.0,29.84,WSW,248,0.0,1.0,95,-99.99,,,-99.99,,2013-07-07 13:34:00,
2013-07-07 06:43:00,54.0,53.0,29.85,WSW,248,0.0,2.0,95,-99.99,,,-99.99,,2013-07-07 13:43:00,
2013-07-07 06:52:00,54.0,53.0,29.85,WSW,248,0.0,2.0,95,-99.99,,,-99.99,,2013-07-07 13:52:00,
2013-07-07 07:02:00,54.0,53.0,29.85,WSW,237,0.0,2.0,95,-99.99,,,-99.99,,2013-07-07 14:02:00,
2013-07-07 07:12:00,54.0,53.0,29.85,WSW,237,0.0,2.0,95,-99.99,,,-99.99,,2013-07-07 14:12:00,
2013-07-07 07:22:00,54.0,53.0,29.85,WSW,237,1.0,3.0,95,-99.99,,,-99.99,,2013-07-07 14:22:00,
2013-07-07 07:33:00,54.0,53.0,29.85,WSW,247,0.0,5.0,95,-99.99,,,-99.99,,2013-07-07 14:33:00,
2013-07-07 07:43:00,54.0,53.0,29.85,WSW,247,0.0,5.0,95,-99.99,,,-99.99,,2013-07-07 14:43:00,
2013-07-07 07:53:00,54.0,53.0,29.85,WSW,247,0.0,5.0,95,-99.99,,,-99.99,,2013-07-07 14:53:00,
2013-07-07 08:02:00,54.0,53.0,29.85,SW,227,1.0,5.0,96,-99.99,,,-99.99,,2013-07-07 15:02:00,
2013-07-07 08:11:00,54.0,53.0,29.85,SW,232,2.0,3.0,96,-99.99,,,-99.99,,2013-07-07 15:11:00,
2013-07-07 08:22:00,54.0,53.0,29.85,SW,232,3.0,5.0,96,-99.99,,,-99.99,,2013-07-07 15:22:00,
2013-07-07 08:33:00,54.0,53.0,29.85,SW,232,3.0,5.0,96,-99.99,,,-99.99,,2013-07-07 15:33:00,
2013-07-07 08:43:00,54.0,53.0,29.85,WSW,251,2.0,6.0,96,-99.99,,,-99.99,,2013-07-07 15:43:00,
2013-07-07 08:52:00,54.0,53.0,29.86,WSW,237,1.0,3.0,95,-99.99,,,-99.99,,2013-07-07 15:52:00,
2013-07-07 09:01:00,54.0,53.0,29.86,WSW,248,0.0,5.0,95,-99.99,,,-99.99,,2013-07-07 16:01:00,
2013-07-07 09:11:00,54.0,53.0,29.86,SW,234,2.0,5.0,95,-99.99,,,-99.99,,2013-07-07 16:11:00,
2013-07-07 09:22:00,54.0,53.0,29.86,SW,234,2.0,5.0,95,-99.99,,,-99.99,,2013-07-07 16:22:00,
2013-07-07 09:43:00,55.0,53.0,29.87,SW,234,6.0,7.0,94,-99.99,,,-99.99,,2013-07-07 16:43:00,
2013-07-07 09:53:00,55.0,53.0,29.87,SW,224,4.0,7.0,94,-99.99,,,-99.99,,2013-07-07 16:53:00,
2013-07-07 10:02:00,55.0,53.0,29.87,SW,224,4.0,7.0,94,-99.99,,,-99.99,,2013-07-07 17:02:00,
2013-07-07 10:11:00,55.0,53.0,29.87,SW,224,4.0,7.0,94,-99.99,,,-99.99,,2013-07-07 17:11:00,
2013-07-07 10:22:00,56.0,54.0,29.87,SW,226,3.0,10.0,92,-99.99,,,-99.99,,2013-07-07 17:22:00,
2013-07-07 10:34:00,56.0,54.0,29.87,SW,226,3.0,10.0,92,-99.99,,,-99.99,,2013-07-07 17:34:00,
2013-07-07 10:43:00,56.0,54.0,29.87,SW,226,3.0,10.0,92,-99.99,,,-99.99,,2013-07-07 17:43:00,
2013-07-07 10:53:00,56.0,54.0,29.87,SW,226,3.0,10.0,92,-99.99,,,-99.99,,2013-07-07 17:53:00,
2013-07-07 11:01:00,56.0,54.0,29.87,SW,226,3.0,10.0,92,-99.99,,,-99.99,,2013-07-07 18:01:00,
2013-07-07 11:22:00,59.0,54.0,29.87,West,260,2.0,11.0,82,-99.99,,,-99.99,,2013-07-07 18:22:00,
2013-07-07 11:33:00,60.0,53.0,29.87,WSW,237,5.0,12.0,79,-99.99,,,-99.99,,2013-07-07 18:33:00,
2013-07-07 11:43:00,60.0,53.0,29.87,WSW,237,5.0,12.0,79,-99.99,,,-99.99,,2013-07-07 18:43:00,
2013-07-07 11:53:00,61.0,53.0,29.86,WSW,239,7.0,11.0,76,-99.99,,,-99.99,,2013-07-07 18:53:00,
2013-07-07 12:01:00,62.0,54.0,29.86,SW,227,7.0,11.0,74,-99.99,,,-99.99,,2013-07-07 19:01:00,
2013-07-07 12:11:00,62.0,53.0,29.87,SW,216,7.0,11.0,73,-99.99,,,-99.99,,2013-07-07 19:11:00,
2013-07-07 12:22:00,62.0,53.0,29.87,SW,216,7.0,11.0,73,-99.99,,,-99.99,,2013-07-07 19:22:00,
2013-07-07 12:33:00,63.0,53.0,29.86,SW,217,8.0,12.0,70,-99.99,,,-99.99,,2013-07-07 19:33:00,
2013-07-07 12:43:00,63.0,53.0,29.86,SW,217,8.0,12.0,70,-99.99,,,-99.99,,2013-07-07 19:43:00,
2013-07-07 12:54:00,63.0,53.0,29.86,SW,224,11.0,14.0,71,-99.99,,,-99.99,,2013-07-07 19:54:00,
2013-07-07 13:02:00,63.0,54.0,29.86,WSW,254,9.0,14.0,73,-99.99,,,-99.99,,2013-07-07 20:02:00,
2013-07-07 13:11:00,63.0,54.0,29.86,WSW,254,9.0,14.0,73,-99.99,,,-99.99,,2013-07-07 20:11:00,
2013-07-07 13:22:00,63.0,53.0,29.85,WSW,239,8.0,17.0,71,-99.99,,,-99.99,,2013-07-07 20:22:00,
2013-07-07 13:33:00,63.0,53.0,29.85,West,263,10.0,16.0,71,-99.99,,,-99.99,,2013-07-07 20:33:00,
2013-07-07 13:42:00,64.0,54.0,29.85,SW,229,6.0,17.0,70,-99.99,,,-99.99,,2013-07-07 20:42:00,
2013-07-07 13:53:00,64.0,54.0,29.85,SW,229,6.0,17.0,70,-99.99,,,-99.99,,2013-07-07 20:53:00,
2013-07-07 14:02:00,65.0,54.0,29.85,SW,219,6.0,14.0,68,-99.99,,,-99.99,,2013-07-07 21:02:00,
2013-07-07 14:11:00,65.0,54.0,29.85,SW,230,12.0,16.0,68,-99.99,,,-99.99,,2013-07-07 21:11:00,
2013-07-07 14:22:00,65.0,54.0,29.85,SW,230,12.0,16.0,68,-99.99,,,-99.99,,2013-07-07 21:22:00,
2013-07-07 14:33:00,65.0,55.0,29.85,SW,226,8.0,14.0,69,-99.99,,,-99.99,,2013-07-07 21:33:00,
2013-07-07 14:43:00,65.0,54.0,29.85,SSW,210,6.0,16.0,67,-99.99,,,-99.99,,2013-07-07 21:43:00,
2013-07-07 14:53:00,66.0,54.0,29.85,SSW,213,7.0,16.0,66,-99.99,,,-99.99,,2013-07-07 21:53:00,
2013-07-07 15:01:00,65.0,54.0,29.85,SW,230,12.0,14.0,67,-99.99,,,-99.99,,2013-07-07 22:01:00,
2013-07-07 15:11:00,65.0,54.0,29.85,SW,230,12.0,14.0,67,-99.99,,,-99.99,,2013-07-07 22:11:00,
2013-07-07 15:22:00,65.0,54.0,29.85,SW,230,12.0,14.0,67,-99.99,,,-99.99,,2013-07-07 22:22:00,
2013-07-07 15:33:00,64.0,54.0,29.85,SW,224,13.0,18.0,69,-99.99,,,-99.99,,2013-07-07 22:33:00,
2013-07-07 15:43:00,64.0,54.0,29.85,WSW,240,12.0,19.0,70,-99.99,,,-99.99,,2013-07-07 22:43:00,
2013-07-07 15:53:00,64.0,54.0,29.85,SW,232,12.0,18.0,70,-99.99,,,-99.99,,2013-07-07 22:53:00,
2013-07-07 16:01:00,65.0,55.0,29.85,SW,230,12.0,18.0,70,-99.99,,,-99.99,,2013-07-07 23:01:00,
2013-07-07 16:11:00,64.0,54.0,29.85,SW,224,13.0,21.0,71,-99.99,,,-99.99,,2013-07-07 23:11:00,
2013-07-07 16:22:00,64.0,54.0,29.85,WSW,246,16.0,19.0,71,-99.99,,,-99.99,,2013-07-07 23:22:00,
2013-07-07 16:33:00,64.0,54.0,29.85,WSW,239,14.0,18.0,71,-99.99,,,-99.99,,2013-07-07 23:33:00,
2013-07-07 16:43:00,64.0,55.0,29.84,SW,220,13.0,19.0,72,-99.99,,,-99.99,,2013-07-07 23:43:00,
2013-07-07 16:52:00,64.0,55.0,29.84,SW,220,13.0,19.0,72,-99.99,,,-99.99,,2013-07-07 23:52:00,
2013-07-07 17:01:00,63.0,54.0,29.85,SW,236,14.0,18.0,73,-99.99,,,-99.99,,2013-07-08 00:01:00,
2013-07-07 17:11:00,63.0,54.0,29.85,SW,236,14.0,18.0,73,-99.99,,,-99.99,,2013-07-08 00:11:00,
2013-07-07 17:22:00,63.0,54.0,29.85,SW,236,14.0,18.0,73,-99.99,,,-99.99,,2013-07-08 00:22:00,
2013-07-07 17:33:00,62.0,54.0,29.84,SW,215,7.0,17.0,74,-99.99,,,-99.99,,2013-07-08 00:33:00,
2013-07-07 17:43:00,62.0,54.0,29.84,SW,220,12.0,20.0,75,-99.99,,,-99.99,,2013-07-08 00:43:00,
2013-07-07 17:53:00,62.0,54.0,29.84,WSW,243,11.0,19.0,75,-99.99,,,-99.99,,2013-07-08 00:53:00,
2013-07-07 18:01:00,61.0,53.0,29.84,SW,217,7.0,19.0,76,-99.99,,,-99.99,,2013-07-08 01:01:00,
2013-07-07 18:11:00,61.0,53.0,29.84,SW,217,7.0,19.0,76,-99.99,,,-99.99,,2013-07-08 01:11:00,
2013-07-07 18:21:00,61.0,53.0,29.84,SW,217,7.0,19.0,76,-99.99,,,-99.99,,2013-07-08 01:21:00,
2013-07-07 18:32:00,60.0,53.0,29.84,SW,226,13.0,19.0,78,-99.99,,,-99.99,,2013-07-08 01:32:00,
2013-07-07 18:42:00,60.0,53.0,29.84,SW,226,13.0,19.0,78,-99.99,,,-99.99,,2013-07-08 01:42:00,
2013-07-07 18:53:00,60.0,54.0,29.84,SW,219,13.0,16.0,80,-99.99,,,-99.99,,2013-07-08 01:53:00,
2013-07-07 19:02:00,59.0,53.0,29.84,SW,233,10.0,14.0,81,-99.99,,,-99.99,,2013-07-08 02:02:00,
2013-07-07 19:11:00,59.0,54.0,29.85,SW,232,13.0,14.0,82,-99.99,,,-99.99,,2013-07-08 02:11:00,
2013-07-07 19:22:00,58.0,53.0,29.85,SSW,213,11.0,14.0,83,-99.99,,,-99.99,,2013-07-08 02:22:00,
2013-07-07 19:33:00,58.0,53.0,29.85,SSW,213,11.0,14.0,83,-99.99,,,-99.99,,2013-07-08 02:33:00,
2013-07-07 19:42:00,58.0,53.0,29.85,West,268,3.0,16.0,84,-99.99,,,-99.99,,2013-07-08 02:42:00,
2013-07-07 19:52:00,58.0,54.0,29.85,WSW,248,5.0,11.0,85,-99.99,,,-99.99,,2013-07-08 02:52:00,
2013-07-07 20:01:00,58.0,54.0,29.85,SW,229,5.0,12.0,85,-99.99,,,-99.99,,2013-07-08 03:01:00,
2013-07-07 20:11:00,57.0,53.0,29.85,SW,234,5.0,10.0,85,-99.99,,,-99.99,,2013-07-08 03:11:00,
2013-07-07 20:22:00,57.0,53.0,29.85,SW,234,5.0,10.0,85,-99.99,,,-99.99,,2013-07-08 03:22:00,
2013-07-07 20:33:00,57.0,53.0,29.86,SW,233,4.0,9.0,86,-99.99,,,-99.99,,2013-07-08 03:33:00,
2013-07-07 20:42:00,57.0,53.0,29.86,SW,233,4.0,9.0,86,-99.99,,,-99.99,,2013-07-08 03:42:00,
2013-07-07 20:52:00,57.0,53.0,29.86,WSW,243,3.0,9.0,87,-99.99,,,-99.99,,2013-07-08 03:52:00,
2013-07-07 21:01:00,57.0,53.0,29.86,SW,223,3.0,8.0,87,-99.99,,,-99.99,,2013-07-08 04:01:00,
2013-07-07 21:11:00,57.0,53.0,29.87,West,265,4.0,8.0,88,-99.99,,,-99.99,,2013-07-08 04:11:00,
2013-07-07 21:22:00,57.0,53.0,29.87,West,265,4.0,8.0,88,-99.99,,,-99.99,,2013-07-08 04:22:00,
2013-07-07 21:33:00,57.0,53.0,29.87,WSW,258,1.0,6.0,88,-99.99,,,-99.99,,2013-07-08 04:33:00,
2013-07-07 21:42:00,57.0,53.0,29.88,WSW,243,5.0,7.0,88,-99.99,,,-99.99,,2013-07-08 04:42:00,
2013-07-07 21:52:00,57.0,53.0,29.88,WSW,243,5.0,7.0,88,-99.99,,,-99.99,,2013-07-08 04:52:00,
2013-07-07 22:01:00,57.0,54.0,29.88,WSW,256,0.0,7.0,89,-99.99,,,-99.99,,2013-07-08 05:01:00,
2013-07-07 22:11:00,57.0,54.0,29.89,WSW,254,2.0,7.0,89,-99.99,,,-99.99,,2013-07-08 05:11:00,
2013-07-07 22:22:00,57.0,54.0,29.89,WSW,254,2.0,7.0,89,-99.99,,,-99.99,,2013-07-08 05:22:00,
2013-07-07 22:33:00,57.0,54.0,29.89,WSW,254,2.0,7.0,89,-99.99,,,-99.99,,2013-07-08 05:33:00,
2013-07-07 22:43:00,57.0,54.0,29.89,WSW,254,2.0,7.0,89,-99.99,,,-99.99,,2013-07-08 05:43:00,
2013-07-07 22:53:00,56.0,53.0,29.90,West,271,2.0,6.0,89,-99.99,,,-99.99,,2013-07-08 05:53:00,
2013-07-07 23:01:00,56.0,53.0,29.90,West,271,2.0,6.0,89,-99.99,,,-99.99,,2013-07-08 06:01:00,
2013-07-07 23:11:00,56.0,53.0,29.90,WSW,258,2.0,8.0,89,-99.99,,,-99.99,,2013-07-08 06:11:00,
2013-07-07 23:22:00,56.0,53.0,29.90,WSW,258,2.0,8.0,89,-99.99,,,-99.99,,2013-07-08 06:22:00,
2013-07-07 23:33:00,56.0,53.0,29.90,SW,217,3.0,6.0,90,-99.99,,,-99.99,,2013-07-08 06:33:00,
2013-07-07 23:42:00,56.0,53.0,29.90,WSW,246,1.0,7.0,90,-99.99,,,-99.99,,2013-07-08 06:42:00,
2013-07-07 23:52:00,56.0,53.0,29.90,SW,219,4.0,7.0,90,-99.99,,,-99.99,,2013-07-08 06:52:00,